Regional Weather Roundup
Issued by NWS

Home | Current Version | Previous Version | Text Only | Print | Product List | Glossary On
Versions: 1 2 3 4 5 6 7 8 9 10 11 12 13 14 15 16 17 18 19 20 21 22 23 24 25 26 27 28 29 30 31 32 33 34 35 36 37 38 39 40 41 42 43 44 45 46 47 48 49 50
000
ASUS43 KLSX 172207
RWRMO

WEATHER SUMMARY FOR MISSOURI
NATIONAL WEATHER SERVICE SPRINGFIELD MO
500 PM CDT THU AUG 17 2017

NOTE: "FAIR" INDICATES FEW OR NO CLOUDS BELOW 12,000 FEET WITH NO
       SIGNIFICANT WEATHER AND/OR OBSTRUCTIONS TO VISIBILITY.
       CURRENT SKY AND/OR WEATHER CONDITIONS ARE NOT AVAILABLE FOR
       CHILLICOTHE AND FARMINGTON.

MOZ001>031-035>038-043-044-053-054-172300-
...NORTHERN AND WESTERN MISSOURI...

CITY           SKY/WX    TMP DP  RH WIND       PRES   REMARKS
KANSAS CTY INT MOSUNNY   84  62  47 W7        29.94F
KANSAS C DTWN  SUNNY     84  62  47 W12       29.92F
LEE`S SUMMIT   SUNNY     82  61  48 W10       29.95S
ST JOSEPH      SUNNY     83  61  47 W14       29.93S
CHILLICOTHE      N/A     84  59  42 W8        29.91S
KIRKSVILLE     SUNNY     84  60  44 W15G23    29.87S

$$
MOZ066>068-077>081-088>096-101>105-172300-
...SOUTHWEST MISSOURI...

CITY           SKY/WX    TMP DP  RH WIND       PRES   REMARKS
SPRINGFIELD    MOSUNNY   83  68  60 NW10G20   29.96F
JOPLIN         MOSUNNY   86  70  58 W12G18    29.98F HX  90
BRANSON        PTSUNNY   82  68  61 W7        29.99F

$$
MOZ032>034-039>042-045>050-055>058-069>072-172300-
...CENTRAL MISSOURI...

CITY           SKY/WX    TMP DP  RH WIND       PRES   REMARKS
COLUMBIA       MOSUNNY   82  65  56 W13       29.90F
JEFFERSON CITY MOSUNNY   82  67  60 W14G23    29.89F
ROLLA          CLOUDY    80  66  62 W14       29.94S
SEDALIA        SUNNY     83  65  54 W12       29.93F
WHITEMAN AFB   SUNNY     83  64  53 W14       29.92F
WARRENSBURG    SUNNY     81  59  47 W6        29.93F
OSAGE BEACH    SUNNY     81  63  54 W12G20    29.94S

$$
MOZ051-052-059>065-172300-
...EAST CENTRAL MISSOURI...

CITY           SKY/WX    TMP DP  RH WIND       PRES   REMARKS
ST LOUIS INTL  PTSUNNY   84  67  56 SW18      29.87R
SPIRIT OF STL  MOSUNNY   83  70  64 W9        29.86R
ST CHARLES     CLOUDY    84  68  58 W9        29.84S

$$
MOZ072>076-082>087-097>100-106>115-172300-
...SOUTH CENTRAL AND SOUTHEAST MISSOURI...

CITY           SKY/WX    TMP DP  RH WIND       PRES   REMARKS
CAPE GIRARDEAU CLOUDY    82  71  69 SW10      29.88F
FARMINGTON     CLOUDY    84  70  62 VRB7      29.90S
POPLAR BLUFF   CLOUDY    83  76  79 SW12      29.89F HX  91
WEST PLAINS    PTSUNNY   83  68  60 W7G16     29.96F

$$



USA.gov is the U.S. government's official web portal to all federal, state and local government web resources and services.